Location: Rounton
(54.4000°N, 1.3500°W)
Time: 23:22:44
(UTC+01:00)

Vanguard 1 - Pass Details

Date: 02 March 2024
Orbit: 653 x 3825 km, 34.2° (Epoch: 21 April)

Event Time Altitude Azimuth Distance (km) Brightness Sun altitude
Rises 01:44:58 0° 272° (W) 7,194 14.3 -39.5°
Enters shadow 01:47:57 - 265° (W) 6,961 14.1 -39.3°
Reaches altitude 10° 01:53:45 10° 251° (WSW) 6,654 - -38.9°
Maximum altitude 02:02:18 14° 228° (SW) 6,565 - -38.2°
Drops below altitude 10° 02:11:13 10° 205° (SSW) 6,896 - -37.4°
Sets 02:21:00 0° 184° (S) 7,636 - -36.6°
